{"data":{"norad_id":67113,"epoch":"2026-09-19T10:13:31.092384Z","epoch_age_seconds":170968,"freshness":"FRESH","line1":"1 67113U 25299M   26262.42605431  .00012618  00000+0  46712-3 0  9998","line2":"2 67113  43.0032 155.0489 0001259 270.0581  90.0127 15.27590345 42741","mean_motion":15.27590345,"eccentricity":0.0001259,"inclination_deg":43.0032,"raan_deg":155.0489,"arg_perigee_deg":270.0581,"mean_anomaly_deg":90.0127,"bstar":0.00046712,"rev_number":4274,"period_min":94.266110329468,"perigee_km":482.15430013332,"apogee_km":483.88193899243,"semimajor_km":6861.1551195629,"source":"CELESTRAK","updated_at":"2026-09-21T09:00:36.105889Z"}}